Starlink 35483

operational
NORAD ID: 66253 Int'l Des: 2025-245 Owner: SPXS Country: US Constellation: starlink
LEOCIRCULAR

About Starlink 35483

Description loading...

Live Position

Loading 3D Globe...

Upcoming Passes

Altitude History

Altitude vs Time

uPlot chart will show altitude changes over time

Two-Line Element Set

1 66253C 25245U 25303.08034722 .00476540 00000+0 74750-3 0 3039
2 66253 53.1600 182.3149 0004740 305.1165 159.4667 16.02738726 14
Epoch: Oct 30, 2025 • Age: 20 hours

Current Status

Altitude 264.3 km
Velocity 7.75 km/s
Sub-Earth Point 16.14°N, 141.39°W
Launch Date Oct 29, 2025
Age 1 days
Type internet

Technical Details

Classification Payload
Mass 575.00 kg
Dry Mass 530.00 kg
Total Mass 575.00 kg
Length 0.30 m
Diameter 4.10 m
Span 29.00 m
Shape Box + pan
Manufacturer SPXS
Bus Type Starlink V2MO
Phase Status In Orbit
Owner/State SPXS/US

Large Constellations

Loading constellations...